Time,TemperatureF,DewpointF,PressureIn,WindDirection,WindDirectionDegrees,WindSpeedMPH,WindSpeedGustMPH,Humidity,HourlyPrecipIn,Conditions,Clouds,dailyrainin,SoftwareType,DateUTC
2013-02-28 00:00:00,54.7,35.4,30.19,NNW,346,4.0,11.0,48,0.00,,---,0.00,VWS V14.01,2013-02-28 06:00:00,
2013-02-28 00:05:00,54.7,35.9,30.19,NNW,345,4.0,8.0,49,0.00,,---,0.00,VWS V14.01,2013-02-28 06:05:00,
2013-02-28 00:10:00,54.7,35.9,30.19,NE,43,8.0,9.0,49,0.00,,---,0.00,VWS V14.01,2013-02-28 06:10:00,
2013-02-28 00:15:00,54.7,35.9,30.20,WNW,297,6.0,9.0,49,0.00,,---,0.00,VWS V14.01,2013-02-28 06:15:00,
2013-02-28 00:20:00,54.5,35.8,30.19,North,354,5.0,9.0,49,0.00,,---,0.00,VWS V14.01,2013-02-28 06:20:00,
2013-02-28 00:25:00,54.5,35.8,30.19,NNE,29,6.0,9.0,49,0.00,,---,0.00,VWS V14.01,2013-02-28 06:25:00,
2013-02-28 00:30:00,54.3,35.0,30.19,NNW,329,4.0,10.0,48,0.00,,---,0.00,VWS V14.01,2013-02-28 06:30:00,
2013-02-28 00:35:00,53.9,35.2,30.19,NW,315,3.0,10.0,49,0.00,,---,0.00,VWS V14.01,2013-02-28 06:35:00,
2013-02-28 00:40:00,53.6,34.9,30.19,NNW,338,4.0,10.0,49,0.00,,---,0.00,VWS V14.01,2013-02-28 06:40:00,
2013-02-28 00:45:00,53.6,33.9,30.19,North,357,9.0,13.0,47,0.00,,---,0.00,VWS V14.01,2013-02-28 06:45:00,
2013-02-28 00:50:00,53.7,34.0,30.19,NE,34,4.0,13.0,47,0.00,,---,0.00,VWS V14.01,2013-02-28 06:50:00,
2013-02-28 00:55:00,53.7,34.0,30.19,NNW,327,11.0,13.0,47,0.00,,---,0.00,VWS V14.01,2013-02-28 06:55:00,
2013-02-28 01:00:00,54.1,33.2,30.19,NNE,19,6.0,17.0,45,0.00,,---,0.00,VWS V14.01,2013-02-28 07:00:00,
2013-02-28 01:05:00,54.1,33.2,30.19,NNW,338,9.0,11.0,45,0.00,,---,0.00,VWS V14.01,2013-02-28 07:05:00,
2013-02-28 01:10:00,54.1,33.8,30.19,NE,45,6.0,15.0,46,0.00,,---,0.00,VWS V14.01,2013-02-28 07:10:00,
2013-02-28 01:15:00,54.0,33.7,30.20,NNE,23,10.0,15.0,46,0.00,,---,0.00,VWS V14.01,2013-02-28 07:15:00,
2013-02-28 01:20:00,53.9,34.2,30.20,NNE,13,5.0,15.0,47,0.00,,---,0.00,VWS V14.01,2013-02-28 07:20:00,
2013-02-28 01:25:00,53.7,34.0,30.20,North,4,3.0,15.0,47,0.00,,---,0.00,VWS V14.01,2013-02-28 07:25:00,
2013-02-28 01:30:00,53.5,34.3,30.20,NNW,340,5.0,15.0,48,0.00,,---,0.00,VWS V14.01,2013-02-28 07:30:00,
2013-02-28 01:35:00,53.4,34.2,30.20,NW,318,6.0,15.0,48,0.00,,---,0.00,VWS V14.01,2013-02-28 07:35:00,
2013-02-28 01:40:00,53.4,33.7,30.20,NNW,338,5.0,15.0,47,0.00,,---,0.00,VWS V14.01,2013-02-28 07:40:00,
2013-02-28 01:45:00,53.3,34.1,30.20,NNE,22,10.0,15.0,48,0.00,,---,0.00,VWS V14.01,2013-02-28 07:45:00,
2013-02-28 01:50:00,53.1,34.0,30.20,NNE,30,8.0,15.0,48,0.00,,---,0.00,VWS V14.01,2013-02-28 07:50:00,
2013-02-28 01:55:00,53.1,34.0,30.20,NNW,328,7.0,16.0,48,0.00,,---,0.00,VWS V14.01,2013-02-28 07:55:00,
2013-02-28 02:00:00,53.0,33.8,30.20,NW,311,6.0,17.0,48,0.00,,---,0.00,VWS V14.01,2013-02-28 08:00:00,
2013-02-28 02:05:00,52.8,34.2,30.20,NNE,23,7.0,13.0,49,0.00,,---,0.00,VWS V14.01,2013-02-28 08:05:00,
2013-02-28 02:10:00,52.5,34.4,30.20,NNE,32,9.0,14.0,50,0.00,,---,0.00,VWS V14.01,2013-02-28 08:10:00,
2013-02-28 02:15:00,52.3,34.2,30.21,NNW,335,3.0,14.0,50,0.00,,---,0.00,VWS V14.01,2013-02-28 08:15:00,
2013-02-28 02:20:00,52.1,34.0,30.21,NNW,340,4.0,14.0,50,0.00,,---,0.00,VWS V14.01,2013-02-28 08:20:00,
2013-02-28 02:25:00,52.1,33.5,30.21,NNW,340,6.0,14.0,49,0.00,,---,0.00,VWS V14.01,2013-02-28 08:25:00,
2013-02-28 02:30:00,52.2,33.6,30.21,North,359,8.0,14.0,49,0.00,,---,0.00,VWS V14.01,2013-02-28 08:30:00,
2013-02-28 02:35:00,52.3,32.7,30.20,North,354,4.0,15.0,47,0.00,,---,0.00,VWS V14.01,2013-02-28 08:35:00,
2013-02-28 02:40:00,52.2,32.1,30.21,NNW,345,13.0,16.0,46,0.00,,---,0.00,VWS V14.01,2013-02-28 08:40:00,
2013-02-28 02:45:00,52.2,31.5,30.21,NNW,333,11.0,19.0,45,0.00,,---,0.00,VWS V14.01,2013-02-28 08:45:00,
2013-02-28 02:50:00,52.1,32.0,30.21,NNW,340,8.0,19.0,46,0.00,,---,0.00,VWS V14.01,2013-02-28 08:50:00,
2013-02-28 02:55:00,52.0,33.5,30.21,North,352,12.0,19.0,49,0.00,,---,0.00,VWS V14.01,2013-02-28 08:55:00,
2013-02-28 03:00:00,51.8,32.8,30.21,NE,43,9.0,19.0,48,0.00,,---,0.00,VWS V14.01,2013-02-28 09:00:00,
2013-02-28 03:05:00,51.6,33.6,30.21,NE,37,5.0,11.0,50,0.00,,---,0.00,VWS V14.01,2013-02-28 09:05:00,
2013-02-28 03:10:00,51.4,32.4,30.20,NNW,334,11.0,18.0,48,0.00,,---,0.00,VWS V14.01,2013-02-28 09:10:00,
2013-02-28 03:15:00,51.1,32.6,30.21,NNW,334,8.0,20.0,49,0.00,,---,0.00,VWS V14.01,2013-02-28 09:15:00,
2013-02-28 03:20:00,50.8,32.8,30.21,NNW,330,14.0,20.0,50,0.00,,---,0.00,VWS V14.01,2013-02-28 09:20:00,
2013-02-28 03:25:00,50.7,32.8,30.21,North,354,20.0,20.0,50,0.00,,---,0.00,VWS V14.01,2013-02-28 09:25:00,
2013-02-28 03:30:00,50.6,32.7,30.21,NNW,340,11.0,20.0,50,0.00,,---,0.00,VWS V14.01,2013-02-28 09:30:00,
2013-02-28 03:35:00,50.6,32.2,30.21,NW,319,7.0,20.0,49,0.00,,---,0.00,VWS V14.01,2013-02-28 09:35:00,
2013-02-28 03:40:00,50.5,32.6,30.22,NNE,33,7.0,20.0,50,0.00,,---,0.00,VWS V14.01,2013-02-28 09:40:00,
2013-02-28 03:45:00,50.4,32.5,30.21,North,357,9.0,20.0,50,0.00,,---,0.00,VWS V14.01,2013-02-28 09:45:00,
2013-02-28 03:50:00,50.3,32.9,30.21,NNE,23,13.0,20.0,51,0.00,,---,0.00,VWS V14.01,2013-02-28 09:50:00,
2013-02-28 03:55:00,50.1,33.2,30.22,NNW,333,9.0,20.0,52,0.00,,---,0.00,VWS V14.01,2013-02-28 09:55:00,
2013-02-28 04:00:00,50.0,32.6,30.22,NW,308,7.0,20.0,51,0.00,,---,0.00,VWS V14.01,2013-02-28 10:00:00,
2013-02-28 04:05:00,49.9,33.0,30.22,NNE,20,5.0,13.0,52,0.00,,---,0.00,VWS V14.01,2013-02-28 10:05:00,
2013-02-28 04:10:00,49.9,33.5,30.22,NNW,342,7.0,16.0,53,0.00,,---,0.00,VWS V14.01,2013-02-28 10:10:00,
2013-02-28 04:15:00,49.9,33.5,30.22,NNE,25,12.0,17.0,53,0.00,,---,0.00,VWS V14.01,2013-02-28 10:15:00,
2013-02-28 04:20:00,49.7,33.8,30.22,NNE,19,16.0,17.0,54,0.00,,---,0.00,VWS V14.01,2013-02-28 10:20:00,
2013-02-28 04:25:00,49.8,34.3,30.22,NNE,29,11.0,17.0,55,0.00,,---,0.00,VWS V14.01,2013-02-28 10:25:00,
2013-02-28 04:30:00,49.6,34.1,30.23,NE,34,8.0,17.0,55,0.00,,---,0.00,VWS V14.01,2013-02-28 10:30:00,
2013-02-28 04:35:00,49.6,34.1,30.23,North,359,10.0,17.0,55,0.00,,---,0.00,VWS V14.01,2013-02-28 10:35:00,
2013-02-28 04:40:00,49.5,33.6,30.23,North,9,10.0,17.0,54,0.00,,---,0.00,VWS V14.01,2013-02-28 10:40:00,
2013-02-28 04:45:00,49.3,33.8,30.23,NE,44,9.0,17.0,55,0.00,,---,0.00,VWS V14.01,2013-02-28 10:45:00,
2013-02-28 04:50:00,49.1,33.7,30.24,North,349,10.0,17.0,55,0.00,,---,0.00,VWS V14.01,2013-02-28 10:50:00,
2013-02-28 04:55:00,49.1,34.1,30.24,North,358,4.0,17.0,56,0.00,,---,0.00,VWS V14.01,2013-02-28 10:55:00,
2013-02-28 05:00:00,48.9,33.9,30.24,NNE,33,8.0,17.0,56,0.00,,---,0.00,VWS V14.01,2013-02-28 11:00:00,
2013-02-28 05:05:00,48.8,33.8,30.24,NNW,344,6.0,11.0,56,0.00,,---,0.00,VWS V14.01,2013-02-28 11:05:00,
2013-02-28 05:10:00,48.8,34.3,30.24,NNE,19,5.0,13.0,57,0.00,,---,0.00,VWS V14.01,2013-02-28 11:10:00,
2013-02-28 05:15:00,48.8,34.3,30.24,NNW,338,7.0,13.0,57,0.00,,---,0.00,VWS V14.01,2013-02-28 11:15:00,
2013-02-28 05:20:00,49.0,34.5,30.24,WNW,297,4.0,14.0,57,0.00,,---,0.00,VWS V14.01,2013-02-28 11:20:00,
2013-02-28 05:25:00,49.0,34.5,30.25,NNW,327,9.0,16.0,57,0.00,,---,0.00,VWS V14.01,2013-02-28 11:25:00,
2013-02-28 05:30:00,49.0,34.9,30.24,NW,304,4.0,16.0,58,0.00,,---,0.00,VWS V14.01,2013-02-28 11:30:00,
2013-02-28 05:35:00,48.9,34.3,30.24,North,1,7.0,16.0,57,0.00,,---,0.00,VWS V14.01,2013-02-28 11:35:00,
2013-02-28 05:40:00,48.8,34.3,30.24,NW,325,5.0,16.0,57,0.00,,---,0.00,VWS V14.01,2013-02-28 11:40:00,
2013-02-28 05:45:00,48.8,34.3,30.24,NNW,330,7.0,16.0,57,0.00,,---,0.00,VWS V14.01,2013-02-28 11:45:00,
2013-02-28 05:50:00,48.8,34.3,30.25,NW,321,6.0,17.0,57,0.00,,---,0.00,VWS V14.01,2013-02-28 11:50:00,
2013-02-28 05:55:00,48.7,34.2,30.25,NNW,338,7.0,17.0,57,0.00,,---,0.00,VWS V14.01,2013-02-28 11:55:00,
2013-02-28 06:00:00,48.7,34.2,30.25,NNW,340,7.0,17.0,57,0.00,,---,0.00,VWS V14.01,2013-02-28 12:00:00,
2013-02-28 06:05:00,48.5,34.0,30.25,NNW,338,10.0,13.0,57,0.00,,---,0.00,VWS V14.01,2013-02-28 12:05:00,
2013-02-28 06:10:00,48.4,33.4,30.25,North,356,5.0,13.0,56,0.00,,---,0.00,VWS V14.01,2013-02-28 12:10:00,
2013-02-28 06:15:00,48.3,33.3,30.25,North,358,5.0,16.0,56,0.00,,---,0.00,VWS V14.01,2013-02-28 12:15:00,
2013-02-28 06:20:00,48.2,33.3,30.24,NNE,18,10.0,16.0,56,0.00,,---,0.00,VWS V14.01,2013-02-28 12:20:00,
2013-02-28 06:25:00,48.1,33.2,30.24,NNW,345,10.0,16.0,56,0.00,,---,0.00,VWS V14.01,2013-02-28 12:25:00,
2013-02-28 06:30:00,48.0,32.6,30.25,NNW,333,9.0,19.0,55,0.00,,---,0.00,VWS V14.01,2013-02-28 12:30:00,
2013-02-28 06:35:00,47.9,31.6,30.25,NW,321,12.0,19.0,53,0.00,,---,0.00,VWS V14.01,2013-02-28 12:35:00,
2013-02-28 06:40:00,47.8,31.0,30.26,NNE,33,13.0,19.0,52,0.00,,---,0.00,VWS V14.01,2013-02-28 12:40:00,
2013-02-28 06:45:00,47.7,31.9,30.26,NE,44,14.0,19.0,54,0.00,,---,0.00,VWS V14.01,2013-02-28 12:45:00,
2013-02-28 06:50:00,47.7,31.4,30.26,NNW,336,13.0,21.0,53,0.00,,---,0.00,VWS V14.01,2013-02-28 12:50:00,
2013-02-28 06:55:00,47.6,31.8,30.26,NNW,338,13.0,21.0,54,0.00,,---,0.00,VWS V14.01,2013-02-28 12:55:00,
2013-02-28 07:00:00,47.6,32.2,30.27,NNW,344,15.0,21.0,55,0.00,,---,0.00,VWS V14.01,2013-02-28 13:00:00,
2013-02-28 07:05:00,47.5,31.7,30.27,North,353,20.0,20.0,54,0.00,,---,0.00,VWS V14.01,2013-02-28 13:05:00,
2013-02-28 07:10:00,47.5,32.2,30.26,NNW,327,12.0,20.0,55,0.00,,---,0.00,VWS V14.01,2013-02-28 13:10:00,
2013-02-28 07:15:00,47.5,31.2,30.27,NE,40,10.0,20.0,53,0.00,,---,0.00,VWS V14.01,2013-02-28 13:15:00,
2013-02-28 07:20:00,47.5,31.2,30.27,NNW,342,10.0,23.0,53,0.00,,---,0.00,VWS V14.01,2013-02-28 13:20:00,
2013-02-28 07:25:00,47.4,31.6,30.27,North,11,11.0,23.0,54,0.00,,---,0.00,VWS V14.01,2013-02-28 13:25:00,
2013-02-28 07:30:00,47.4,31.1,30.27,NNW,345,13.0,23.0,53,0.00,,---,0.00,VWS V14.01,2013-02-28 13:30:00,
2013-02-28 07:35:00,47.3,31.0,30.27,NNW,340,10.0,23.0,53,0.00,,---,0.00,VWS V14.01,2013-02-28 13:35:00,
2013-02-28 07:40:00,47.3,31.5,30.27,North,350,12.0,23.0,54,0.00,,---,0.00,VWS V14.01,2013-02-28 13:40:00,
2013-02-28 07:45:00,47.4,31.1,30.27,NNE,15,13.0,23.0,53,0.00,,---,0.00,VWS V14.01,2013-02-28 13:45:00,
2013-02-28 07:50:00,47.3,31.5,30.27,NNW,340,7.0,23.0,54,0.00,,---,0.00,VWS V14.01,2013-02-28 13:50:00,
2013-02-28 07:55:00,47.3,31.5,30.28,NNW,334,9.0,23.0,54,0.00,,---,0.00,VWS V14.01,2013-02-28 13:55:00,
2013-02-28 08:00:00,47.3,32.0,30.28,NNW,340,8.0,23.0,55,0.00,,---,0.00,VWS V14.01,2013-02-28 14:00:00,
2013-02-28 08:05:00,47.4,32.1,30.28,North,1,9.0,15.0,55,0.00,,---,0.00,VWS V14.01,2013-02-28 14:05:00,
2013-02-28 08:10:00,47.3,32.0,30.28,NNW,342,7.0,16.0,55,0.00,,---,0.00,VWS V14.01,2013-02-28 14:10:00,
2013-02-28 08:15:00,47.3,31.5,30.28,NW,321,6.0,18.0,54,0.00,,---,0.00,VWS V14.01,2013-02-28 14:15:00,
2013-02-28 08:20:00,47.4,32.1,30.29,NNW,327,5.0,18.0,55,0.00,,---,0.00,VWS V14.01,2013-02-28 14:20:00,
2013-02-28 08:25:00,47.6,32.2,30.30,NNW,347,4.0,18.0,55,0.00,,---,0.00,VWS V14.01,2013-02-28 14:25:00,
2013-02-28 08:30:00,47.8,32.9,30.30,North,354,8.0,18.0,56,0.00,,---,0.00,VWS V14.01,2013-02-28 14:30:00,
2013-02-28 08:35:00,47.9,32.5,30.30,NE,39,6.0,18.0,55,0.00,,---,0.00,VWS V14.01,2013-02-28 14:35:00,
2013-02-28 08:40:00,48.1,32.3,30.30,NE,34,12.0,18.0,54,0.00,,---,0.00,VWS V14.01,2013-02-28 14:40:00,
2013-02-28 08:45:00,48.3,32.9,30.30,North,8,7.0,18.0,55,0.00,,---,0.00,VWS V14.01,2013-02-28 14:45:00,
2013-02-28 08:50:00,48.3,32.0,30.30,NE,41,8.0,18.0,53,0.00,,---,0.00,VWS V14.01,2013-02-28 14:50:00,
2013-02-28 08:55:00,48.3,32.4,30.31,NNE,21,12.0,18.0,54,0.00,,---,0.00,VWS V14.01,2013-02-28 14:55:00,
2013-02-28 09:00:00,48.5,32.2,30.31,NNE,16,8.0,18.0,53,0.00,,---,0.00,VWS V14.01,2013-02-28 15:00:00,
2013-02-28 09:05:00,48.5,32.6,30.31,NNW,338,6.0,13.0,54,0.00,,---,0.00,VWS V14.01,2013-02-28 15:05:00,
2013-02-28 09:10:00,48.9,33.0,30.31,NNW,333,6.0,13.0,54,0.00,,---,0.00,VWS V14.01,2013-02-28 15:10:00,
2013-02-28 09:15:00,48.9,31.6,30.31,North,353,11.0,15.0,51,0.00,,---,0.00,VWS V14.01,2013-02-28 15:15:00,
2013-02-28 09:20:00,48.9,32.1,30.31,NE,39,7.0,15.0,52,0.00,,---,0.00,VWS V14.01,2013-02-28 15:20:00,
2013-02-28 09:25:00,49.1,31.8,30.31,NE,39,8.0,16.0,51,0.00,,---,0.00,VWS V14.01,2013-02-28 15:25:00,
2013-02-28 09:30:00,49.3,32.4,30.31,NNW,334,13.0,16.0,52,0.00,,---,0.00,VWS V14.01,2013-02-28 15:30:00,
2013-02-28 09:35:00,49.5,32.1,30.31,NNE,22,8.0,16.0,51,0.00,,---,0.00,VWS V14.01,2013-02-28 15:35:00,
2013-02-28 09:40:00,49.8,31.9,30.31,NNE,12,14.0,16.0,50,0.00,,---,0.00,VWS V14.01,2013-02-28 15:40:00,
2013-02-28 09:45:00,50.4,32.5,30.31,NW,309,4.0,16.0,50,0.00,,---,0.00,VWS V14.01,2013-02-28 15:45:00,
2013-02-28 09:50:00,50.9,31.4,30.31,North,352,8.0,17.0,47,0.00,,---,0.00,VWS V14.01,2013-02-28 15:50:00,
2013-02-28 09:55:00,51.0,31.0,30.31,NE,46,15.0,17.0,46,0.00,,---,0.00,VWS V14.01,2013-02-28 15:55:00,
2013-02-28 10:00:00,50.9,31.4,30.31,NNE,17,12.0,17.0,47,0.00,,---,0.00,VWS V14.01,2013-02-28 16:00:00,
2013-02-28 10:05:00,50.7,32.2,30.31,NNE,30,6.0,17.0,49,0.00,,---,0.00,VWS V14.01,2013-02-28 16:05:00,
2013-02-28 10:10:00,50.5,31.0,30.31,NNE,25,14.0,17.0,47,0.00,,---,0.00,VWS V14.01,2013-02-28 16:10:00,
2013-02-28 10:15:00,50.4,31.0,30.31,NE,41,10.0,17.0,47,0.00,,---,0.00,VWS V14.01,2013-02-28 16:15:00,
2013-02-28 10:20:00,50.5,31.0,30.30,NNE,30,7.0,17.0,47,0.00,,---,0.00,VWS V14.01,2013-02-28 16:20:00,
2013-02-28 10:25:00,51.1,31.6,30.30,NNW,343,12.0,18.0,47,0.00,,---,0.00,VWS V14.01,2013-02-28 16:25:00,
2013-02-28 10:30:00,51.3,29.0,30.30,North,352,15.0,18.0,42,0.00,,---,0.00,VWS V14.01,2013-02-28 16:30:00,
2013-02-28 10:35:00,51.8,29.5,30.30,NNE,29,12.0,20.0,42,0.00,,---,0.00,VWS V14.01,2013-02-28 16:35:00,
2013-02-28 10:40:00,52.4,30.6,30.30,NNW,334,14.0,20.0,43,0.00,,---,0.00,VWS V14.01,2013-02-28 16:40:00,
2013-02-28 10:45:00,52.5,30.1,30.30,NW,325,5.0,20.0,42,0.00,,---,0.00,VWS V14.01,2013-02-28 16:45:00,
2013-02-28 10:50:00,52.7,29.7,30.29,NNE,32,13.0,20.0,41,0.00,,---,0.00,VWS V14.01,2013-02-28 16:50:00,
2013-02-28 10:55:00,52.8,28.5,30.30,NNW,345,12.0,20.0,39,0.00,,---,0.00,VWS V14.01,2013-02-28 16:55:00,
2013-02-28 11:00:00,52.5,28.9,30.30,NNE,16,16.0,20.0,40,0.00,,---,0.00,VWS V14.01,2013-02-28 17:00:00,
2013-02-28 11:05:00,52.7,30.3,30.30,NW,319,13.0,15.0,42,0.00,,---,0.00,VWS V14.01,2013-02-28 17:05:00,
2013-02-28 11:10:00,52.5,30.7,30.30,NNW,338,12.0,19.0,43,0.00,,---,0.00,VWS V14.01,2013-02-28 17:10:00,
2013-02-28 11:15:00,52.1,30.3,30.30,North,349,10.0,22.0,43,0.00,,---,0.00,VWS V14.01,2013-02-28 17:15:00,
2013-02-28 11:20:00,52.2,29.8,30.30,NW,326,8.0,22.0,42,0.00,,---,0.00,VWS V14.01,2013-02-28 17:20:00,
2013-02-28 11:25:00,52.1,29.7,30.30,NNW,329,6.0,22.0,42,0.00,,---,0.00,VWS V14.01,2013-02-28 17:25:00,
2013-02-28 11:30:00,52.2,29.8,30.30,NNE,19,15.0,22.0,42,0.00,,---,0.00,VWS V14.01,2013-02-28 17:30:00,
2013-02-28 11:35:00,51.8,30.0,30.29,NNW,345,12.0,22.0,43,0.00,,---,0.00,VWS V14.01,2013-02-28 17:35:00,
2013-02-28 11:40:00,51.9,31.2,30.29,NNE,25,13.0,22.0,45,0.00,,---,0.00,VWS V14.01,2013-02-28 17:40:00,
2013-02-28 11:45:00,52.0,31.9,30.29,North,354,12.0,22.0,46,0.00,,---,0.00,VWS V14.01,2013-02-28 17:45:00,
2013-02-28 11:50:00,51.7,30.5,30.29,NE,46,8.0,22.0,44,0.00,,---,0.00,VWS V14.01,2013-02-28 17:50:00,
2013-02-28 11:55:00,51.5,29.8,30.29,North,353,9.0,22.0,43,0.00,,---,0.00,VWS V14.01,2013-02-28 17:55:00,
2013-02-28 12:00:00,51.8,30.0,30.29,North,1,10.0,22.0,43,0.00,,---,0.00,VWS V14.01,2013-02-28 18:00:00,
2013-02-28 12:05:00,51.9,30.7,30.29,NNE,25,7.0,11.0,44,0.00,,---,0.00,VWS V14.01,2013-02-28 18:05:00,
2013-02-28 12:10:00,52.0,29.6,30.28,NNW,333,4.0,17.0,42,0.00,,---,0.00,VWS V14.01,2013-02-28 18:10:00,
2013-02-28 12:15:00,52.4,31.1,30.28,NE,39,10.0,17.0,44,0.00,,---,0.00,VWS V14.01,2013-02-28 18:15:00,
2013-02-28 12:20:00,52.7,30.3,30.27,NNW,345,12.0,17.0,42,0.00,,---,0.00,VWS V14.01,2013-02-28 18:20:00,
2013-02-28 12:25:00,52.7,30.3,30.28,NNE,22,9.0,17.0,42,0.00,,---,0.00,VWS V14.01,2013-02-28 18:25:00,
2013-02-28 12:30:00,52.6,30.8,30.28,NW,322,12.0,17.0,43,0.00,,---,0.00,VWS V14.01,2013-02-28 18:30:00,
2013-02-28 12:35:00,53.0,30.5,30.27,NNW,336,8.0,17.0,42,0.00,,---,0.00,VWS V14.01,2013-02-28 18:35:00,
2013-02-28 12:40:00,53.2,30.1,30.27,North,352,4.0,17.0,41,0.00,,---,0.00,VWS V14.01,2013-02-28 18:40:00,
2013-02-28 12:45:00,53.3,30.2,30.27,NNW,330,9.0,17.0,41,0.00,,---,0.00,VWS V14.01,2013-02-28 18:45:00,
2013-02-28 12:50:00,53.5,31.0,30.26,North,353,5.0,17.0,42,0.00,,---,0.00,VWS V14.01,2013-02-28 18:50:00,
2013-02-28 12:55:00,53.4,30.3,30.26,NW,316,7.0,17.0,41,0.00,,---,0.00,VWS V14.01,2013-02-28 18:55:00,
2013-02-28 13:00:00,53.5,30.4,30.25,NW,309,5.0,17.0,41,0.00,,---,0.00,VWS V14.01,2013-02-28 19:00:00,
2013-02-28 13:05:00,53.7,30.0,30.25,NNW,342,9.0,11.0,40,0.00,,---,0.00,VWS V14.01,2013-02-28 19:05:00,
2013-02-28 13:10:00,53.5,31.0,30.25,NNW,337,4.0,14.0,42,0.00,,---,0.00,VWS V14.01,2013-02-28 19:10:00,
2013-02-28 13:15:00,53.5,30.4,30.25,NNE,21,6.0,17.0,41,0.00,,---,0.00,VWS V14.01,2013-02-28 19:15:00,
2013-02-28 13:20:00,53.8,29.4,30.24,WNW,300,7.0,17.0,39,0.00,,---,0.00,VWS V14.01,2013-02-28 19:20:00,
2013-02-28 13:25:00,53.9,30.1,30.24,NNW,336,7.0,17.0,40,0.00,,---,0.00,VWS V14.01,2013-02-28 19:25:00,
2013-02-28 13:30:00,54.1,29.7,30.24,NNE,19,6.0,17.0,39,0.00,,---,0.00,VWS V14.01,2013-02-28 19:30:00,
2013-02-28 13:35:00,54.8,30.3,30.24,NW,326,5.0,17.0,39,0.00,,---,0.00,VWS V14.01,2013-02-28 19:35:00,
2013-02-28 13:40:00,54.7,29.0,30.23,ENE,58,8.0,17.0,37,0.00,,---,0.00,VWS V14.01,2013-02-28 19:40:00,
2013-02-28 13:45:00,54.5,29.4,30.23,NW,323,12.0,17.0,38,0.00,,---,0.00,VWS V14.01,2013-02-28 19:45:00,
2013-02-28 13:50:00,54.4,28.7,30.23,NW,325,6.0,17.0,37,0.00,,---,0.00,VWS V14.01,2013-02-28 19:50:00,
2013-02-28 13:55:00,54.7,29.6,30.23,NNW,335,6.0,17.0,38,0.00,,---,0.00,VWS V14.01,2013-02-28 19:55:00,
2013-02-28 14:00:00,55.1,29.3,30.23,NE,43,10.0,17.0,37,0.00,,---,0.00,VWS V14.01,2013-02-28 20:00:00,
2013-02-28 14:05:00,55.2,28.7,30.22,NNE,29,10.0,16.0,36,0.00,,---,0.00,VWS V14.01,2013-02-28 20:05:00,
2013-02-28 14:10:00,55.1,28.6,30.22,North,9,11.0,16.0,36,0.00,,---,0.00,VWS V14.01,2013-02-28 20:10:00,
2013-02-28 14:15:00,55.1,29.3,30.22,North,354,14.0,16.0,37,0.00,,---,0.00,VWS V14.01,2013-02-28 20:15:00,
2013-02-28 14:20:00,55.1,29.3,30.22,NNW,338,8.0,16.0,37,0.00,,---,0.00,VWS V14.01,2013-02-28 20:20:00,
2013-02-28 14:25:00,55.0,28.6,30.22,NNW,327,13.0,17.0,36,0.00,,---,0.00,VWS V14.01,2013-02-28 20:25:00,
2013-02-28 14:30:00,55.1,30.0,30.21,NW,325,8.0,17.0,38,0.00,,---,0.00,VWS V14.01,2013-02-28 20:30:00,
2013-02-28 14:35:00,55.4,29.6,30.22,NNW,338,5.0,17.0,37,0.00,,---,0.00,VWS V14.01,2013-02-28 20:35:00,
2013-02-28 14:40:00,55.8,30.6,30.22,NNE,25,9.0,17.0,38,0.00,,---,0.00,VWS V14.01,2013-02-28 20:40:00,
2013-02-28 14:45:00,55.9,30.0,30.22,North,9,10.0,17.0,37,0.00,,---,0.00,VWS V14.01,2013-02-28 20:45:00,
2013-02-28 14:50:00,55.8,29.9,30.21,NNE,16,4.0,17.0,37,0.00,,---,0.00,VWS V14.01,2013-02-28 20:50:00,
2013-02-28 14:55:00,55.7,29.9,30.21,North,9,9.0,17.0,37,0.00,,---,0.00,VWS V14.01,2013-02-28 20:55:00,
2013-02-28 15:00:00,55.8,29.9,30.21,NW,318,5.0,17.0,37,0.00,,---,0.00,VWS V14.01,2013-02-28 21:00:00,
2013-02-28 15:05:00,55.9,30.0,30.22,NNW,329,7.0,11.0,37,0.00,,---,0.00,VWS V14.01,2013-02-28 21:05:00,
2013-02-28 15:10:00,56.0,30.8,30.21,NNE,33,4.0,11.0,38,0.00,,---,0.00,VWS V14.01,2013-02-28 21:10:00,
2013-02-28 15:15:00,56.2,30.3,30.21,NW,308,5.0,12.0,37,0.00,,---,0.00,VWS V14.01,2013-02-28 21:15:00,
2013-02-28 15:20:00,56.2,30.3,30.21,NW,321,5.0,13.0,37,0.00,,---,0.00,VWS V14.01,2013-02-28 21:20:00,
2013-02-28 15:25:00,56.3,30.4,30.20,NNW,347,9.0,13.0,37,0.00,,---,0.00,VWS V14.01,2013-02-28 21:25:00,
2013-02-28 15:30:00,56.3,31.0,30.20,NW,304,9.0,14.0,38,0.00,,---,0.00,VWS V14.01,2013-02-28 21:30:00,
2013-02-28 15:35:00,56.5,30.6,30.20,NNW,336,12.0,14.0,37,0.00,,---,0.00,VWS V14.01,2013-02-28 21:35:00,
2013-02-28 15:40:00,56.7,30.1,30.19,NNW,347,7.0,14.0,36,0.00,,---,0.00,VWS V14.01,2013-02-28 21:40:00,
2013-02-28 15:45:00,56.7,30.7,30.20,WNW,302,3.0,16.0,37,0.00,,---,0.00,VWS V14.01,2013-02-28 21:45:00,
2013-02-28 15:50:00,57.2,31.2,30.19,NW,323,12.0,16.0,37,0.00,,---,0.00,VWS V14.01,2013-02-28 21:50:00,
2013-02-28 15:55:00,57.2,29.8,30.19,NNW,343,6.0,16.0,35,0.00,,---,0.00,VWS V14.01,2013-02-28 21:55:00,
2013-02-28 16:00:00,57.8,30.4,30.19,North,1,9.0,16.0,35,0.00,,---,0.00,VWS V14.01,2013-02-28 22:00:00,
2013-02-28 16:05:00,57.7,29.5,30.19,NW,321,8.0,11.0,34,0.00,,---,0.00,VWS V14.01,2013-02-28 22:05:00,
2013-02-28 16:10:00,57.5,29.4,30.19,NNW,343,7.0,11.0,34,0.00,,---,0.00,VWS V14.01,2013-02-28 22:10:00,
2013-02-28 16:15:00,57.3,30.6,30.19,NNW,331,3.0,11.0,36,0.00,,---,0.00,VWS V14.01,2013-02-28 22:15:00,
2013-02-28 16:20:00,57.0,31.0,30.19,NNE,26,3.0,11.0,37,0.00,,---,0.00,VWS V14.01,2013-02-28 22:20:00,
2013-02-28 16:25:00,56.9,30.9,30.19,North,1,8.0,11.0,37,0.00,,---,0.00,VWS V14.01,2013-02-28 22:25:00,
2013-02-28 16:30:00,57.1,31.1,30.20,North,8,4.0,11.0,37,0.00,,---,0.00,VWS V14.01,2013-02-28 22:30:00,
2013-02-28 16:35:00,57.1,29.7,30.20,NNW,332,6.0,12.0,35,0.00,,---,0.00,VWS V14.01,2013-02-28 22:35:00,
2013-02-28 16:40:00,57.1,30.4,30.20,NW,316,6.0,12.0,36,0.00,,---,0.00,VWS V14.01,2013-02-28 22:40:00,
2013-02-28 16:45:00,57.1,31.1,30.20,NNW,329,4.0,12.0,37,0.00,,---,0.00,VWS V14.01,2013-02-28 22:45:00,
2013-02-28 16:50:00,57.1,30.4,30.19,NNE,23,8.0,12.0,36,0.00,,---,0.00,VWS V14.01,2013-02-28 22:50:00,
2013-02-28 16:55:00,57.1,29.7,30.19,North,349,11.0,13.0,35,0.00,,---,0.00,VWS V14.01,2013-02-28 22:55:00,
2013-02-28 17:00:00,56.8,30.1,30.19,NE,50,9.0,13.0,36,0.00,,---,0.00,VWS V14.01,2013-02-28 23:00:00,
2013-02-28 17:05:00,56.8,30.1,30.20,NNE,20,8.0,10.0,36,0.00,,---,0.00,VWS V14.01,2013-02-28 23:05:00,
2013-02-28 17:10:00,56.9,30.9,30.20,North,355,4.0,10.0,37,0.00,,---,0.00,VWS V14.01,2013-02-28 23:10:00,
2013-02-28 17:15:00,57.0,31.0,30.20,NW,325,4.0,10.0,37,0.00,,---,0.00,VWS V14.01,2013-02-28 23:15:00,
2013-02-28 17:20:00,56.9,31.6,30.20,NNW,340,2.0,10.0,38,0.00,,---,0.00,VWS V14.01,2013-02-28 23:20:00,
2013-02-28 17:25:00,56.8,31.5,30.20,NNW,339,2.0,11.0,38,0.00,,---,0.00,VWS V14.01,2013-02-28 23:25:00,
2013-02-28 17:30:00,56.8,32.1,30.20,NW,321,2.0,11.0,39,0.00,,---,0.00,VWS V14.01,2013-02-28 23:30:00,
2013-02-28 17:35:00,56.7,31.4,30.20,North,5,5.0,11.0,38,0.00,,---,0.00,VWS V14.01,2013-02-28 23:35:00,
2013-02-28 17:40:00,56.8,31.5,30.21,NNW,333,3.0,11.0,38,0.00,,---,0.00,VWS V14.01,2013-02-28 23:40:00,
2013-02-28 17:45:00,56.8,31.5,30.21,NW,318,2.0,11.0,38,0.00,,---,0.00,VWS V14.01,2013-02-28 23:45:00,
2013-02-28 17:50:00,56.8,32.1,30.21,NNW,344,1.0,11.0,39,0.00,,---,0.00,VWS V14.01,2013-02-28 23:50:00,
2013-02-28 17:55:00,56.7,32.0,30.21,NW,323,6.0,11.0,39,0.00,,---,0.00,VWS V14.01,2013-02-28 23:55:00,
2013-02-28 18:00:00,56.5,31.2,30.21,NNW,332,3.0,11.0,38,0.00,,---,0.00,VWS V14.01,2013-03-01 00:00:00,
2013-02-28 18:05:00,56.2,31.6,30.21,NNW,340,7.0,7.0,39,0.00,,---,0.00,VWS V14.01,2013-03-01 00:05:00,
2013-02-28 18:10:00,55.9,32.0,30.21,NNW,333,2.0,7.0,40,0.00,,---,0.00,VWS V14.01,2013-03-01 00:10:00,
2013-02-28 18:15:00,55.5,31.6,30.21,NNE,20,3.0,7.0,40,0.00,,---,0.00,VWS V14.01,2013-03-01 00:15:00,
2013-02-28 18:20:00,55.2,31.9,30.21,North,359,3.0,7.0,41,0.00,,---,0.00,VWS V14.01,2013-03-01 00:20:00,
2013-02-28 18:25:00,54.9,32.3,30.21,NW,321,2.0,7.0,42,0.00,,---,0.00,VWS V14.01,2013-03-01 00:25:00,
2013-02-28 18:30:00,54.6,32.6,30.21,NNW,338,3.0,7.0,43,0.00,,---,0.00,VWS V14.01,2013-03-01 00:30:00,
2013-02-28 18:35:00,54.6,32.6,30.21,NW,326,0.0,7.0,43,0.00,,---,0.00,VWS V14.01,2013-03-01 00:35:00,
2013-02-28 18:40:00,54.3,32.9,30.22,NW,325,2.0,7.0,44,0.00,,---,0.00,VWS V14.01,2013-03-01 00:40:00,
2013-02-28 18:45:00,54.2,32.2,30.22,NW,319,3.0,7.0,43,0.00,,---,0.00,VWS V14.01,2013-03-01 00:45:00,
2013-02-28 18:50:00,54.0,32.6,30.22,NNW,342,1.0,7.0,44,0.00,,---,0.00,VWS V14.01,2013-03-01 00:50:00,
2013-02-28 18:55:00,53.8,32.4,30.22,NW,315,3.0,7.0,44,0.00,,---,0.00,VWS V14.01,2013-03-01 00:55:00,
2013-02-28 19:00:00,53.5,32.7,30.22,NW,307,4.0,7.0,45,0.00,,---,0.00,VWS V14.01,2013-03-01 01:00:00,
2013-02-28 19:05:00,53.3,32.5,30.22,NNW,333,3.0,4.0,45,0.00,,---,0.00,VWS V14.01,2013-03-01 01:05:00,
2013-02-28 19:10:00,53.3,32.0,30.22,NNW,330,2.0,5.0,44,0.00,,---,0.00,VWS V14.01,2013-03-01 01:10:00,
2013-02-28 19:15:00,53.5,32.1,30.22,North,4,2.0,5.0,44,0.00,,---,0.00,VWS V14.01,2013-03-01 01:15:00,
2013-02-28 19:20:00,53.7,32.3,30.22,NW,323,2.0,6.0,44,0.00,,---,0.00,VWS V14.01,2013-03-01 01:20:00,
2013-02-28 19:25:00,53.8,32.4,30.22,NNW,327,4.0,6.0,44,0.00,,---,0.00,VWS V14.01,2013-03-01 01:25:00,
2013-02-28 19:30:00,53.9,32.5,30.22,North,4,3.0,6.0,44,0.00,,---,0.00,VWS V14.01,2013-03-01 01:30:00,
2013-02-28 19:35:00,54.0,32.0,30.22,North,349,3.0,6.0,43,0.00,,---,0.00,VWS V14.01,2013-03-01 01:35:00,
2013-02-28 19:40:00,54.2,32.2,30.22,NNW,340,3.0,6.0,43,0.00,,---,0.00,VWS V14.01,2013-03-01 01:40:00,
2013-02-28 19:45:00,54.3,32.3,30.22,North,357,2.0,6.0,43,0.00,,---,0.00,VWS V14.01,2013-03-01 01:45:00,
2013-02-28 19:50:00,54.2,32.8,30.23,NW,326,1.0,6.0,44,0.00,,---,0.00,VWS V14.01,2013-03-01 01:50:00,
2013-02-28 19:55:00,53.9,33.6,30.23,NW,319,2.0,6.0,46,0.00,,---,0.00,VWS V14.01,2013-03-01 01:55:00,
2013-02-28 20:00:00,53.6,33.3,30.24,NW,326,1.0,6.0,46,0.00,,---,0.00,VWS V14.01,2013-03-01 02:00:00,
2013-02-28 20:05:00,53.5,33.8,30.24,NW,316,2.0,2.0,47,0.00,,---,0.00,VWS V14.01,2013-03-01 02:05:00,
2013-02-28 20:10:00,53.5,33.8,30.24,NW,321,1.0,2.0,47,0.00,,---,0.00,VWS V14.01,2013-03-01 02:10:00,
2013-02-28 20:15:00,53.5,33.8,30.24,NNW,330,3.0,3.0,47,0.00,,---,0.00,VWS V14.01,2013-03-01 02:15:00,
2013-02-28 20:20:00,53.3,34.1,30.24,NW,307,1.0,4.0,48,0.00,,---,0.00,VWS V14.01,2013-03-01 02:20:00,
2013-02-28 20:25:00,52.8,33.7,30.24,NW,321,2.0,4.0,48,0.00,,---,0.00,VWS V14.01,2013-03-01 02:25:00,
2013-02-28 20:30:00,52.6,34.0,30.25,NW,305,1.0,4.0,49,0.00,,---,0.00,VWS V14.01,2013-03-01 02:30:00,
2013-02-28 20:35:00,52.4,33.8,30.25,NW,306,0.0,4.0,49,0.00,,---,0.00,VWS V14.01,2013-03-01 02:35:00,
2013-02-28 20:40:00,52.0,34.5,30.24,NW,306,0.0,4.0,51,0.00,,---,0.00,VWS V14.01,2013-03-01 02:40:00,
2013-02-28 20:45:00,51.7,34.7,30.24,NW,305,0.0,4.0,52,0.00,,---,0.00,VWS V14.01,2013-03-01 02:45:00,
2013-02-28 20:50:00,51.6,34.6,30.24,NW,305,1.0,4.0,52,0.00,,---,0.00,VWS V14.01,2013-03-01 02:50:00,
2013-02-28 20:55:00,51.5,34.5,30.25,NW,309,0.0,4.0,52,0.00,,---,0.00,VWS V14.01,2013-03-01 02:55:00,
2013-02-28 21:00:00,51.5,34.5,30.25,NW,309,1.0,4.0,52,0.00,,---,0.00,VWS V14.01,2013-03-01 03:00:00,
2013-02-28 21:05:00,51.4,34.4,30.25,NW,314,0.0,2.0,52,0.00,,---,0.00,VWS V14.01,2013-03-01 03:05:00,
2013-02-28 21:10:00,51.2,35.1,30.25,NW,314,0.0,2.0,54,0.00,,---,0.00,VWS V14.01,2013-03-01 03:10:00,
2013-02-28 21:15:00,51.0,35.4,30.25,NW,314,1.0,2.0,55,0.00,,---,0.00,VWS V14.01,2013-03-01 03:15:00,
2013-02-28 21:20:00,51.1,35.5,30.25,NW,314,1.0,2.0,55,0.00,,---,0.00,VWS V14.01,2013-03-01 03:20:00,
2013-02-28 21:25:00,51.2,36.1,30.25,WNW,302,1.0,2.0,56,0.00,,---,0.00,VWS V14.01,2013-03-01 03:25:00,
2013-02-28 21:30:00,51.1,36.4,30.25,WNW,300,1.0,2.0,57,0.00,,---,0.00,VWS V14.01,2013-03-01 03:30:00,
2013-02-28 21:35:00,51.1,36.4,30.26,WNW,302,0.0,2.0,57,0.00,,---,0.00,VWS V14.01,2013-03-01 03:35:00,
2013-02-28 21:40:00,51.0,36.3,30.26,WNW,302,0.0,2.0,57,0.00,,---,0.00,VWS V14.01,2013-03-01 03:40:00,
2013-02-28 21:45:00,50.9,36.2,30.26,WNW,302,0.0,2.0,57,0.00,,---,0.00,VWS V14.01,2013-03-01 03:45:00,
2013-02-28 21:50:00,50.7,36.0,30.26,WNW,302,0.0,2.0,57,0.00,,---,0.00,VWS V14.01,2013-03-01 03:50:00,
2013-02-28 21:55:00,50.4,36.2,30.26,WNW,302,0.0,2.0,58,0.00,,---,0.00,VWS V14.01,2013-03-01 03:55:00,
2013-02-28 22:00:00,50.1,36.8,30.26,WNW,302,1.0,2.0,60,0.00,,---,0.00,VWS V14.01,2013-03-01 04:00:00,
2013-02-28 22:05:00,49.9,37.0,30.26,WNW,301,1.0,1.0,61,0.00,,---,0.00,VWS V14.01,2013-03-01 04:05:00,
2013-02-28 22:10:00,50.0,37.5,30.26,WNW,301,0.0,1.0,62,0.00,,---,0.00,VWS V14.01,2013-03-01 04:10:00,
2013-02-28 22:15:00,49.9,38.2,30.26,WNW,300,1.0,1.0,64,0.00,,---,0.00,VWS V14.01,2013-03-01 04:15:00,
2013-02-28 22:20:00,50.1,38.8,30.25,WNW,301,0.0,1.0,65,0.00,,---,0.00,VWS V14.01,2013-03-01 04:20:00,
2013-02-28 22:25:00,50.1,38.8,30.26,WNW,301,1.0,1.0,65,0.00,,---,0.00,VWS V14.01,2013-03-01 04:25:00,
2013-02-28 22:30:00,50.1,39.2,30.25,WNW,301,0.0,1.0,66,0.00,,---,0.00,VWS V14.01,2013-03-01 04:30:00,
2013-02-28 22:35:00,50.1,39.2,30.25,WNW,301,1.0,1.0,66,0.00,,---,0.00,VWS V14.01,2013-03-01 04:35:00,
2013-02-28 22:40:00,50.0,38.7,30.25,WNW,301,1.0,1.0,65,0.00,,---,0.00,VWS V14.01,2013-03-01 04:40:00,
2013-02-28 22:45:00,49.8,38.9,30.25,WNW,301,1.0,2.0,66,0.00,,---,0.00,VWS V14.01,2013-03-01 04:45:00,
2013-02-28 22:50:00,49.7,38.4,30.25,WNW,302,1.0,2.0,65,0.00,,---,0.00,VWS V14.01,2013-03-01 04:50:00,
2013-02-28 22:55:00,49.5,38.2,30.25,WNW,297,2.0,2.0,65,0.00,,---,0.00,VWS V14.01,2013-03-01 04:55:00,
2013-02-28 23:00:00,49.2,38.0,30.24,WNW,296,1.0,2.0,65,0.00,,---,0.00,VWS V14.01,2013-03-01 05:00:00,
2013-02-28 23:05:00,48.8,38.7,30.24,WNW,297,0.0,2.0,68,0.00,,---,0.00,VWS V14.01,2013-03-01 05:05:00,
2013-02-28 23:06:00,48.7,38.6,30.24,WNW,297,0.0,2.0,68,0.00,,---,0.00,VWS V14.01,2013-03-01 05:06:00,
2013-02-28 23:11:00,48.5,38.4,30.24,WNW,297,1.0,2.0,68,0.00,,---,0.00,VWS V14.01,2013-03-01 05:11:00,
2013-02-28 23:16:00,48.5,38.4,30.24,WNW,297,1.0,2.0,68,0.00,,---,0.00,VWS V14.01,2013-03-01 05:16:00,
2013-02-28 23:21:00,48.4,38.0,30.24,WNW,297,0.0,2.0,67,0.00,,---,0.00,VWS V14.01,2013-03-01 05:21:00,
2013-02-28 23:26:00,48.2,38.2,30.23,WNW,297,0.0,2.0,68,0.00,,---,0.00,VWS V14.01,2013-03-01 05:26:00,
2013-02-28 23:31:00,48.4,38.3,30.24,WNW,296,0.0,2.0,68,0.00,,---,0.00,VWS V14.01,2013-03-01 05:31:00,
2013-02-28 23:36:00,48.9,37.7,30.24,WNW,297,0.0,2.0,65,0.00,,---,0.00,VWS V14.01,2013-03-01 05:36:00,
2013-02-28 23:41:00,49.5,37.4,30.25,WNW,297,0.0,2.0,63,0.00,,---,0.00,VWS V14.01,2013-03-01 05:41:00,
2013-02-28 23:46:00,49.8,36.9,30.25,WNW,297,0.0,2.0,61,0.00,,---,0.00,VWS V14.01,2013-03-01 05:46:00,
2013-02-28 23:51:00,50.1,37.2,30.25,WNW,297,0.0,2.0,61,0.00,,---,0.00,VWS V14.01,2013-03-01 05:51:00,
2013-02-28 23:56:00,50.1,36.8,30.25,WNW,297,0.0,2.0,60,0.00,,---,0.00,VWS V14.01,2013-03-01 05:56:00,